This demonstration page uses our WeatherBlox Daily Observations layout. Learn more.

Left ArrowRight Arrow

36.17497, -115.13722

Hourly Observations for August 16, 2017

Temp ( °F °C ) Dew Point ( °F °C ) Humidity (%) Winds ( mph kmh ) Pressure ( in mb ) Visibility ( mi km ) Precip ( " mm )
12:53 am 00:53 Clear 82 27.8 34 1.1 18 18 N N/A 29.77 1008 10 16.0934 N/A
1:53 am 01:53 Clear 81 27.2 35 1.7 19 19 N N/A 29.78 1008 10 16.0934 N/A
2:53 am 02:53 Clear 78 25.6 36 2.2 22 22 NNW 3 6 29.79 1009 10 16.0934 N/A
3:53 am 03:53 Clear 78 25.6 39 3.9 25 25 N N/A 29.8 1009 10 16.0934 N/A
4:53 am 04:53 Clear 77 25 38 3.3 24 24 N N/A 29.81 1009 10 16.0934 N/A
5:53 am 05:53 Clear 76 24.4 40 4.4 27 27 N 5 7 29.83 1010 10 16.0934 N/A
6:53 am 06:53 Sunny 78 25.6 41 5 27 27 N 5 7 29.86 1011 10 16.0934 N/A
7:53 am 07:53 Sunny 82 27.8 41 5 23 23 N N/A 29.88 1012 10 16.0934 N/A
8:53 am 08:53 Sunny 84 28.9 39 3.9 20 20 N N/A 29.89 1012 10 16.0934 N/A
9:53 am 09:53 Sunny 86 30 38 3.3 18 18 SE 5 7 29.9 1013 10 16.0934 N/A
10:53 am 10:53 Sunny 89 31.7 35 1.7 15 15 VRB 5 7 29.91 1013 10 16.0934 N/A
11:53 am 11:53 Sunny 92 33.3 34 1.1 13 13 VRB 5 7 29.9 1013 10 16.0934 N/A
12:53 pm 12:53 Sunny 93 33.9 34 1.1 12 12 undefined N/A 29.88 1012 10 16.0934 N/A
1:53 pm 13:53 Sunny 94 34.4 33 0.6 12 12 SE 8 13 29.86 1011 10 16.0934 N/A
2:53 pm 14:53 Sunny 95 35 33 0.6 11 11 E 8 13 29.85 1011 10 16.0934 N/A
3:53 pm 15:53 Sunny 95 35 34 1.1 12 12 S 12 19 29.83 1010 10 16.0934 N/A
4:53 pm 16:53 Sunny 95 35 35 1.7 12 12 SSE 6 9 29.83 1010 10 16.0934 N/A
5:53 pm 17:53 Sunny 95 35 36 2.2 13 13 S 10 17 29.82 1010 10 16.0934 N/A
6:53 pm 18:53 Sunny 94 34.4 37 2.8 14 14 SSE 6 9 29.82 1010 10 16.0934 N/A
7:53 pm 19:53 Clear 92 33.3 37 2.8 14 14 SSE 8 13 29.83 1010 10 16.0934 N/A
8:53 pm 20:53 Clear 91 32.8 38 3.3 15 15 S 6 9 29.85 1011 10 16.0934 N/A
9:53 pm 21:53 Clear 90 32.2 37 2.8 15 15 SW 5 7 29.86 1011 10 16.0934 N/A
10:53 pm 22:53 Clear 86 30 40 4.4 20 20 N N/A 29.87 1012 10 16.0934 N/A
11:53 pm 23:53 Clear 83 28.3 43 6.1 24 24 N 3 6 29.88 1012 10 16.0934 N/A

Powered by AerisWeather